| time (UTC) | temp C | wind direction | speed KPH | gust KPH | rain 1hr cm | rain 24hr cm | rain mn cm | humidity % | barometer mb |
| 20260502163517 | 24 | 182 | 4.8 | 8.0 | 0.00 | 0.00 | 0.00 | 36 | 1016.3 |
| 20260502163016 | 24 | 189 | 0.0 | 1.6 | 0.00 | 0.00 | 0.00 | 36 | 1016.4 |
| 20260502162516 | 24 | 189 | 0.0 | 1.6 | 0.00 | 0.00 | 0.00 | 35 | 1016.4 |
| 20260502162016 | 24 | 189 | 1.6 | 3.2 | 0.00 | 0.00 | 0.00 | 36 | 1016.4 |
| 20260502161516 | 24 | 189 | 1.6 | 3.2 | 0.00 | 0.00 | 0.00 | 36 | 1016.5 |
| 20260502161016 | 24 | 189 | 1.6 | 3.2 | 0.00 | 0.00 | 0.00 | 36 | 1016.6 |
| 20260502160516 | 24 | 189 | 3.2 | 6.4 | 0.00 | 0.00 | 0.00 | 36 | 1016.7 |
| 20260502152015 | 25 | 208 | 3.2 | 6.4 | 0.00 | 0.00 | 0.00 | 36 | 1017.2 |
| 20260502151515 | 25 | 208 | 3.2 | 6.4 | 0.00 | 0.00 | 0.00 | 35 | 1017.2 |
| 20260502151015 | 25 | 208 | 6.4 | 9.7 | 0.00 | 0.00 | 0.00 | 35 | 1017.3 |
| 20260502150515 | 25 | 208 | 6.4 | 9.7 | 0.00 | 0.00 | 0.00 | 34 | 1017.4 |
| 20260502130514 | 24 | 180 | 0.0 | 1.6 | 0.00 | 0.00 | 0.00 | 33 | 1019.2 |
| 20260502123513 | 23 | 180 | 4.8 | 9.7 | 0.00 | 0.00 | 0.00 | 35 | 1019.6 |
| 20260502123013 | 23 | 180 | 4.8 | 9.7 | 0.00 | 0.00 | 0.00 | 36 | 1019.6 |
| 20260502122513 | 23 | 169 | 4.8 | 8.0 | 0.00 | 0.00 | 0.00 | 34 | 1019.7 |
| 20260502122013 | 23 | 169 | 4.8 | 8.0 | 0.00 | 0.00 | 0.00 | 36 | 1019.7 |
| 20260502121513 | 23 | 169 | 4.8 | 8.0 | 0.00 | 0.00 | 0.00 | 37 | 1019.8 |
| 20260502121013 | 22 | 169 | 3.2 | 4.8 | 0.00 | 0.00 | 0.00 | 37 | 1019.9 |
| 20260502120513 | 22 | 169 | 4.8 | 8.0 | 0.00 | 0.00 | 0.00 | 37 | 1019.9 |
| 20260502115513 | 22 | 169 | 4.8 | 8.0 | 0.00 | 0.00 | 0.00 | 38 | 1020.1 |
| 20260502115012 | 22 | 169 | 4.8 | 8.0 | 0.00 | 0.00 | 0.00 | 37 | 1020.1 |
| 20260502114512 | 22 | 169 | 4.8 | 8.0 | 0.00 | 0.00 | 0.00 | 37 | 1020.1 |
| 20260502114012 | 22 | 169 | 4.8 | 8.0 | 0.00 | 0.00 | 0.00 | 38 | 1020.2 |
| 20260502113512 | 22 | 163 | 3.2 | 3.2 | 0.00 | 0.00 | 0.00 | 39 | 1020.2 |
| 20260502113012 | 21 | 163 | 3.2 | 3.2 | 0.00 | 0.00 | 0.00 | 37 | 1020.3 |
| 20260502112512 | 22 | 163 | 3.2 | 3.2 | 0.00 | 0.00 | 0.00 | 39 | 1020.4 |
| 20260502112012 | 22 | 163 | 4.8 | 6.4 | 0.00 | 0.00 | 0.00 | 39 | 1020.4 |
| 20260502111512 | 21 | 163 | 4.8 | 6.4 | 0.00 | 0.00 | 0.00 | 39 | 1020.5 |
| 20260502111012 | 21 | 163 | 3.2 | 3.2 | 0.00 | 0.00 | 0.00 | 39 | 1020.5 |
| 20260502110512 | 21 | 163 | 3.2 | 3.2 | 0.00 | 0.00 | 0.00 | 39 | 1020.6 |
| 20260502110012 | 21 | 163 | 3.2 | 3.2 | 0.00 | 0.00 | 0.00 | 40 | 1020.7 |
| 20260502105512 | 21 | 163 | 4.8 | 6.4 | 0.00 | 0.00 | 0.00 | 39 | 1020.7 |
| 20260502105012 | 21 | 163 | 4.8 | 6.4 | 0.00 | 0.00 | 0.00 | 39 | 1020.7 |
| 20260502104512 | 21 | 163 | 4.8 | 6.4 | 0.00 | 0.00 | 0.00 | 41 | 1020.8 |
| 20260502104011 | 21 | 163 | 4.8 | 6.4 | 0.00 | 0.00 | 0.00 | 40 | 1020.9 |
| 20260502103511 | 20 | 157 | 1.6 | 1.6 | 0.00 | 0.00 | 0.00 | 40 | 1020.9 |
| 20260502103011 | 21 | 157 | 1.6 | 1.6 | 0.00 | 0.00 | 0.00 | 39 | 1020.9 |
| 20260502102511 | 21 | 157 | 3.2 | 3.2 | 0.00 | 0.00 | 0.00 | 39 | 1021.0 |
| 20260502102011 | 20 | 157 | 3.2 | 3.2 | 0.00 | 0.00 | 0.00 | 40 | 1021.1 |
| 20260502101511 | 20 | 157 | 3.2 | 3.2 | 0.00 | 0.00 | 0.00 | 40 | 1021.2 |
| 20260502101011 | 20 | 157 | 4.8 | 6.4 | 0.00 | 0.00 | 0.00 | 40 | 1021.3 |
| 20260502100511 | 20 | 155 | 0.0 | 0.0 | 0.00 | 0.00 | 0.00 | 40 | 1021.4 |
| 20260502091510 | 18 | 155 | 0.0 | 0.0 | 0.00 | 0.00 | 0.00 | 42 | 1022.1 |
| 20260502091010 | 18 | 155 | 1.6 | 1.6 | 0.00 | 0.00 | 0.00 | 44 | 1022.1 |
| 20260502090510 | 18 | 155 | 1.6 | 1.6 | 0.00 | 0.00 | 0.00 | 44 | 1022.1 |
| 20260502071509 | 15 | 144 | 3.2 | 3.2 | 0.00 | 0.00 | 0.00 | 54 | 1022.5 |
| 20260502071009 | 15 | 144 | 3.2 | 3.2 | 0.00 | 0.00 | 0.00 | 55 | 1022.6 |
| 20260502070508 | 15 | 144 | 4.8 | 6.4 | 0.00 | 0.00 | 0.00 | 54 | 1022.6 |
| 20260502070009 | 14 | 144 | 4.8 | 6.4 | 0.00 | 0.00 | 0.00 | 57 | 1022.7 |
| 20260502065509 | 13 | 144 | 4.8 | 6.4 | 0.00 | 0.00 | 0.00 | 55 | 1022.7 |
| 20260502065008 | 13 | 144 | 4.8 | 6.4 | 0.00 | 0.00 | 0.00 | 57 | 1022.6 |
| 20260502064508 | 13 | 148 | 4.8 | 8.0 | 0.00 | 0.00 | 0.00 | 54 | 1022.6 |
| 20260502064008 | 13 | 148 | 4.8 | 8.0 | 0.00 | 0.00 | 0.00 | 54 | 1022.6 |
| 20260502063508 | 13 | 128 | 0.0 | 3.2 | 0.00 | 0.00 | 0.00 | 55 | 1022.6 |
| 20260502063008 | 13 | 128 | 0.0 | 3.2 | 0.00 | 0.00 | 0.00 | 55 | 1022.6 |
| 20260502062508 | 13 | 128 | 0.0 | 3.2 | 0.00 | 0.00 | 0.00 | 55 | 1022.7 |
| 20260502062008 | 13 | 128 | 1.6 | 4.8 | 0.00 | 0.00 | 0.00 | 55 | 1022.6 |
| 20260502061508 | 13 | 128 | 3.2 | 8.0 | 0.00 | 0.00 | 0.00 | 55 | 1022.7 |
| 20260502061008 | 12 | 128 | 0.0 | 3.2 | 0.00 | 0.00 | 0.00 | 56 | 1022.7 |
| 20260502060508 | 12 | 128 | 0.0 | 3.2 | 0.00 | 0.00 | 0.00 | 56 | 1022.7 |
| 20260502060007 | 12 | 128 | 0.0 | 3.2 | 0.00 | 0.00 | 0.00 | 57 | 1022.7 |
| 20260502055507 | 12 | 128 | 1.6 | 4.8 | 0.00 | 0.00 | 0.00 | 58 | 1022.7 |
| 20260502055007 | 12 | 128 | 1.6 | 4.8 | 0.00 | 0.00 | 0.00 | 58 | 1022.8 |
| 20260502054507 | 12 | 128 | 3.2 | 8.0 | 0.00 | 0.00 | 0.00 | 58 | 1022.7 |
| 20260502054007 | 11 | 128 | 3.2 | 8.0 | 0.00 | 0.00 | 0.00 | 61 | 1022.7 |
| 20260502053507 | 11 | 128 | 3.2 | 8.0 | 0.00 | 0.00 | 0.00 | 62 | 1022.6 |
| 20260502053007 | 11 | 111 | 0.0 | 0.0 | 0.00 | 0.00 | 0.00 | 62 | 1022.6 |
| 20260502052507 | 11 | 111 | 0.0 | 0.0 | 0.00 | 0.00 | 0.00 | 63 | 1022.7 |
| 20260502052007 | 11 | 111 | 0.0 | 0.0 | 0.00 | 0.00 | 0.00 | 63 | 1022.6 |
| 20260502051507 | 10 | 111 | 1.6 | 1.6 | 0.00 | 0.00 | 0.00 | 64 | 1022.6 |
| 20260502051007 | 10 | 111 | 1.6 | 1.6 | 0.00 | 0.00 | 0.00 | 65 | 1022.6 |
| 20260502050507 | 10 | 111 | 0.0 | 0.0 | 0.00 | 0.00 | 0.00 | 65 | 1022.6 |
| 20260502050007 | 10 | 111 | 0.0 | 0.0 | 0.00 | 0.00 | 0.00 | 65 | 1022.6 |
| 20260502045507 | 10 | 111 | 0.0 | 0.0 | 0.00 | 0.00 | 0.00 | 66 | 1022.5 |
| 20260502045007 | 10 | 111 | 1.6 | 1.6 | 0.00 | 0.00 | 0.00 | 66 | 1022.6 |
| 20260502044507 | 10 | 95 | 0.0 | 0.0 | 0.00 | 0.00 | 0.00 | 68 | 1022.6 |
| 20260502044006 | 10 | 95 | 0.0 | 0.0 | 0.00 | 0.00 | 0.00 | 67 | 1022.5 |
| 20260502043506 | 10 | 95 | 1.6 | 1.6 | 0.00 | 0.00 | 0.00 | 67 | 1022.6 |
| 20260502043006 | 9 | 95 | 1.6 | 1.6 | 0.00 | 0.00 | 0.00 | 67 | 1022.6 |
| 20260502042506 | 9 | 95 | 1.6 | 1.6 | 0.00 | 0.00 | 0.00 | 69 | 1022.5 |
| 20260502042006 | 9 | 95 | 0.0 | 0.0 | 0.00 | 0.00 | 0.00 | 68 | 1022.6 |
| 20260502041506 | 9 | 95 | 0.0 | 0.0 | 0.00 | 0.00 | 0.00 | 68 | 1022.6 |
| 20260502041006 | 9 | 95 | 1.6 | 1.6 | 0.00 | 0.00 | 0.00 | 68 | 1022.6 |
| 20260502040506 | 9 | 95 | 1.6 | 1.6 | 0.00 | 0.00 | 0.00 | 67 | 1022.6 |
| 20260502040006 | 9 | 95 | 1.6 | 1.6 | 0.00 | 0.00 | 0.00 | 67 | 1022.6 |
| 20260502035506 | 9 | 95 | 0.0 | 0.0 | 0.00 | 0.00 | 0.00 | 67 | 1022.7 |
| 20260502035006 | 9 | 95 | 0.0 | 0.0 | 0.00 | 0.00 | 0.00 | 67 | 1022.6 |
| 20260502034506 | 9 | 95 | 0.0 | 0.0 | 0.00 | 0.00 | 0.00 | 67 | 1022.7 |
| 20260502034006 | 9 | 95 | 1.6 | 1.6 | 0.00 | 0.00 | 0.00 | 68 | 1022.6 |
| 20260502033506 | 9 | 95 | 1.6 | 1.6 | 0.00 | 0.00 | 0.00 | 66 | 1022.6 |
| 20260502033005 | 9 | 91 | 0.0 | 0.0 | 0.00 | 0.00 | 0.00 | 67 | 1022.7 |
| 20260502032505 | 9 | 91 | 1.6 | 1.6 | 0.00 | 0.00 | 0.00 | 66 | 1022.7 |
| 20260502032005 | 9 | 91 | 1.6 | 1.6 | 0.00 | 0.00 | 0.00 | 65 | 1022.7 |
| 20260502031505 | 10 | 91 | 1.6 | 1.6 | 0.00 | 0.00 | 0.00 | 64 | 1022.7 |
| 20260502031005 | 10 | 91 | 0.0 | 0.0 | 0.00 | 0.00 | 0.00 | 65 | 1022.7 |
| 20260502030505 | 10 | 91 | 0.0 | 0.0 | 0.00 | 0.00 | 0.00 | 64 | 1022.7 |
| 20260502030005 | 10 | 91 | 0.0 | 0.0 | 0.00 | 0.00 | 0.00 | 64 | 1022.7 |
| 20260502025505 | 10 | 91 | 1.6 | 1.6 | 0.00 | 0.00 | 0.00 | 62 | 1022.7 |
| 20260502025005 | 10 | 82 | 0.0 | 0.0 | 0.00 | 0.00 | 0.00 | 62 | 1022.7 |
| 20260502024505 | 10 | 82 | 0.0 | 0.0 | 0.00 | 0.00 | 0.00 | 63 | 1022.7 |
| 20260502024004 | 10 | 82 | 0.0 | 0.0 | 0.00 | 0.00 | 0.00 | 62 | 1022.7 |
| 20260502023504 | 10 | 82 | 1.6 | 1.6 | 0.00 | 0.00 | 0.00 | 62 | 1022.6 |
| 20260502023004 | 10 | 82 | 1.6 | 1.6 | 0.00 | 0.00 | 0.00 | 63 | 1022.6 |
| 20260502022504 | 10 | 82 | 0.0 | 0.0 | 0.00 | 0.00 | 0.00 | 62 | 1022.7 |
| 20260502022004 | 10 | 82 | 0.0 | 0.0 | 0.00 | 0.00 | 0.00 | 62 | 1022.6 |
| 20260502021504 | 10 | 82 | 0.0 | 0.0 | 0.00 | 0.00 | 0.00 | 63 | 1022.6 |
| 20260502021004 | 10 | 82 | 1.6 | 1.6 | 0.00 | 0.00 | 0.00 | 62 | 1022.7 |
| 20260502020504 | 10 | 82 | 1.6 | 1.6 | 0.00 | 0.00 | 0.00 | 62 | 1022.6 |
| 20260502020004 | 10 | 82 | 1.6 | 1.6 | 0.00 | 0.00 | 0.00 | 62 | 1022.6 |
| 20260502015504 | 10 | 79 | 0.0 | 0.0 | 0.00 | 0.00 | 0.00 | 61 | 1022.6 |
| 20260502015004 | 10 | 79 | 0.0 | 0.0 | 0.00 | 0.00 | 0.00 | 60 | 1022.6 |
| 20260502014503 | 10 | 79 | 1.6 | 1.6 | 0.00 | 0.00 | 0.00 | 59 | 1022.6 |
| 20260502014003 | 10 | 79 | 1.6 | 1.6 | 0.00 | 0.00 | 0.00 | 59 | 1022.6 |
| 20260502013503 | 10 | 79 | 3.2 | 3.2 | 0.00 | 0.00 | 0.00 | 59 | 1022.7 |
| 20260502013003 | 10 | 79 | 3.2 | 3.2 | 0.00 | 0.00 | 0.00 | 60 | 1022.7 |
| 20260502012503 | 10 | 79 | 3.2 | 3.2 | 0.00 | 0.00 | 0.00 | 60 | 1022.8 |
| 20260502012003 | 10 | 74 | 0.0 | 0.0 | 0.00 | 0.00 | 0.00 | 60 | 1022.9 |
| 20260502011503 | 10 | 74 | 0.0 | 0.0 | 0.00 | 0.00 | 0.00 | 60 | 1022.9 |
| 20260502011003 | 10 | 74 | 0.0 | 0.0 | 0.00 | 0.00 | 0.00 | 59 | 1022.9 |
| 20260502010503 | 10 | 74 | 1.6 | 0.0 | 0.00 | 0.00 | 0.00 | 60 | 1022.9 |
| 20260502010003 | 10 | 74 | 1.6 | 0.0 | 0.00 | 0.00 | 0.00 | 59 | 1022.9 |
| 20260502005503 | 11 | 74 | 1.6 | 0.0 | 0.00 | 0.00 | 0.00 | 58 | 1023.0 |
| 20260502005003 | 11 | 74 | 3.2 | 1.6 | 0.00 | 0.00 | 0.00 | 58 | 1023.0 |
| 20260502004503 | 11 | 74 | 3.2 | 1.6 | 0.00 | 0.00 | 0.00 | 57 | 1023.0 |
| 20260502004003 | 11 | 74 | 3.2 | 1.6 | 0.00 | 0.00 | 0.00 | 56 | 1023.0 |
| 20260502003502 | 11 | 78 | 0.0 | 0.0 | 0.00 | 0.00 | 0.00 | 56 | 1023.1 |
| 20260502003002 | 11 | 78 | 1.6 | 1.6 | 0.00 | 0.00 | 0.00 | 56 | 1023.1 |
| 20260502002502 | 11 | 78 | 1.6 | 1.6 | 0.00 | 0.00 | 0.00 | 57 | 1023.1 |
| 20260502002002 | 11 | 78 | 1.6 | 1.6 | 0.00 | 0.00 | 0.00 | 56 | 1023.1 |
| 20260502001502 | 11 | 78 | 0.0 | 0.0 | 0.00 | 0.00 | 0.00 | 57 | 1023.2 |
| 20260502001002 | 11 | 78 | 0.0 | 0.0 | 0.00 | 0.00 | 0.00 | 56 | 1023.2 |
| 20260502000502 | 11 | 78 | 0.0 | 0.0 | 0.00 | 0.00 | 0.00 | 57 | 1023.3 |
| 20260502000002 | 11 | 78 | 1.6 | 1.6 | 0.00 | 0.00 | 0.00 | 56 | 1023.3 |
| 20260501235502 | 11 | 78 | 1.6 | 1.6 | 0.00 | 0.00 | 0.00 | 56 | 1023.3 |
| 20260501235002 | 11 | 78 | 1.6 | 1.6 | 0.00 | 0.00 | 0.00 | 55 | 1023.3 |
| 20260501234502 | 11 | 95 | 0.0 | 0.0 | 0.00 | 0.00 | 0.00 | 55 | 1023.4 |
| 20260501234002 | 12 | 95 | 0.0 | 0.0 | 0.00 | 0.00 | 0.00 | 55 | 1023.4 |
| 20260501233502 | 12 | 95 | 0.0 | 0.0 | 0.00 | 0.00 | 0.00 | 54 | 1023.4 |
| 20260501233001 | 12 | 95 | 1.6 | 1.6 | 0.00 | 0.00 | 0.00 | 53 | 1023.4 |
| 20260501232501 | 12 | 95 | 1.6 | 1.6 | 0.00 | 0.00 | 0.00 | 53 | 1023.4 |
| 20260501232001 | 12 | 95 | 0.0 | 0.0 | 0.00 | 0.00 | 0.00 | 53 | 1023.5 |
| 20260501231501 | 12 | 95 | 1.6 | 1.6 | 0.00 | 0.00 | 0.00 | 54 | 1023.5 |
| 20260501231001 | 12 | 95 | 1.6 | 1.6 | 0.00 | 0.00 | 0.00 | 53 | 1023.5 |
| 20260501230501 | 12 | 95 | 1.6 | 1.6 | 0.00 | 0.00 | 0.00 | 54 | 1023.5 |
| 20260501230001 | 12 | 95 | 0.0 | 0.0 | 0.00 | 0.00 | 0.00 | 54 | 1023.5 |
| 20260501225501 | 12 | 95 | 0.0 | 0.0 | 0.00 | 0.00 | 0.00 | 54 | 1023.5 |
| 20260501225001 | 12 | 95 | 0.0 | 0.0 | 0.00 | 0.00 | 0.00 | 53 | 1023.5 |
| 20260501224501 | 12 | 95 | 1.6 | 1.6 | 0.00 | 0.00 | 0.00 | 52 | 1023.5 |
| 20260501224001 | 12 | 95 | 1.6 | 1.6 | 0.00 | 0.00 | 0.00 | 52 | 1023.5 |
| 20260501223501 | 12 | 95 | 1.6 | 1.6 | 0.00 | 0.00 | 0.00 | 52 | 1023.5 |
| 20260501223001 | 12 | 113 | 0.0 | 0.0 | 0.00 | 0.00 | 0.00 | 52 | 1023.5 |
| 20260501222501 | 13 | 113 | 0.0 | 0.0 | 0.00 | 0.00 | 0.00 | 51 | 1023.5 |
| 20260501222001 | 13 | 113 | 0.0 | 0.0 | 0.00 | 0.00 | 0.00 | 51 | 1023.5 |
| 20260501221500 | 13 | 113 | 1.6 | 1.6 | 0.00 | 0.00 | 0.00 | 51 | 1023.5 |
| 20260501221000 | 13 | 113 | 1.6 | 1.6 | 0.00 | 0.00 | 0.00 | 51 | 1023.5 |
| 20260501220500 | 13 | 113 | 3.2 | 3.2 | 0.00 | 0.00 | 0.00 | 51 | 1023.5 |
| 20260501220000 | 13 | 113 | 3.2 | 3.2 | 0.00 | 0.00 | 0.00 | 50 | 1023.5 |
| 20260501215500 | 13 | 131 | 0.0 | 1.6 | 0.00 | 0.00 | 0.00 | 50 | 1023.5 |
| 20260501215000 | 13 | 113 | 3.2 | 3.2 | 0.00 | 0.00 | 0.00 | 49 | 1023.4 |
| 20260501214500 | 13 | 131 | 0.0 | 1.6 | 0.00 | 0.00 | 0.00 | 50 | 1023.4 |
| 20260501214000 | 13 | 131 | 1.6 | 3.2 | 0.00 | 0.00 | 0.00 | 49 | 1023.5 |
| 20260501213500 | 13 | 131 | 1.6 | 3.2 | 0.00 | 0.00 | 0.00 | 49 | 1023.5 |
| 20260501213000 | 14 | 131 | 1.6 | 3.2 | 0.00 | 0.00 | 0.00 | 48 | 1023.5 |
| 20260501212500 | 14 | 131 | 3.2 | 6.4 | 0.00 | 0.00 | 0.00 | 48 | 1023.5 |
| 20260501212000 | 14 | 131 | 3.2 | 6.4 | 0.00 | 0.00 | 0.00 | 47 | 1023.5 |
| 20260501211500 | 14 | 131 | 0.0 | 1.6 | 0.00 | 0.00 | 0.00 | 47 | 1023.5 |
| 20260501211000 | 14 | 131 | 0.0 | 1.6 | 0.00 | 0.00 | 0.00 | 46 | 1023.5 |
| 20260501210500 | 15 | 131 | 0.0 | 1.6 | 0.00 | 0.00 | 0.00 | 46 | 1023.5 |
| 20260501210000 | 15 | 131 | 1.6 | 3.2 | 0.00 | 0.00 | 0.00 | 46 | 1023.4 |
| 20260501205459 | 15 | 131 | 1.6 | 3.2 | 0.00 | 0.00 | 0.00 | 46 | 1023.5 |
| 20260501204959 | 15 | 131 | 3.2 | 6.4 | 0.00 | 0.00 | 0.00 | 45 | 1023.5 |
| 20260501204459 | 15 | 121 | 0.0 | 1.6 | 0.00 | 0.00 | 0.00 | 45 | 1023.5 |
| 20260501203959 | 15 | 121 | 0.0 | 1.6 | 0.00 | 0.00 | 0.00 | 46 | 1023.4 |
| 20260501203459 | 15 | 121 | 1.6 | 3.2 | 0.00 | 0.00 | 0.00 | 46 | 1023.5 |
| 20260501202959 | 15 | 121 | 1.6 | 3.2 | 0.00 | 0.00 | 0.00 | 46 | 1023.5 |
| 20260501202459 | 15 | 121 | 1.6 | 3.2 | 0.00 | 0.00 | 0.00 | 47 | 1023.5 |
| 20260501201959 | 15 | 121 | 3.2 | 6.4 | 0.00 | 0.00 | 0.00 | 46 | 1023.5 |
| 20260501201458 | 15 | 121 | 4.8 | 9.7 | 0.00 | 0.00 | 0.00 | 46 | 1023.5 |
| 20260501200958 | 15 | 121 | 4.8 | 9.7 | 0.00 | 0.00 | 0.00 | 45 | 1023.4 |
| 20260501200458 | 15 | 121 | 4.8 | 9.7 | 0.00 | 0.00 | 0.00 | 45 | 1023.4 |
| 20260501195958 | 15 | 118 | 0.0 | 3.2 | 0.00 | 0.00 | 0.00 | 44 | 1023.4 |
| 20260501195458 | 16 | 118 | 0.0 | 3.2 | 0.00 | 0.00 | 0.00 | 43 | 1023.4 |
| 20260501194958 | 16 | 118 | 1.6 | 4.8 | 0.00 | 0.00 | 0.00 | 43 | 1023.4 |
| 20260501194458 | 16 | 118 | 1.6 | 4.8 | 0.00 | 0.00 | 0.00 | 43 | 1023.3 |
| 20260501193958 | 16 | 118 | 3.2 | 8.0 | 0.00 | 0.00 | 0.00 | 42 | 1023.3 |
| 20260501193458 | 16 | 118 | 3.2 | 8.0 | 0.00 | 0.00 | 0.00 | 42 | 1023.2 |
| 20260501192958 | 16 | 118 | 3.2 | 8.0 | 0.00 | 0.00 | 0.00 | 42 | 1023.3 |
| 20260501192458 | 16 | 118 | 6.4 | 12.9 | 0.00 | 0.00 | 0.00 | 42 | 1023.3 |
| 20260501191958 | 16 | 118 | 6.4 | 12.9 | 0.00 | 0.00 | 0.00 | 41 | 1023.3 |
| 20260501191458 | 16 | 118 | 0.0 | 3.2 | 0.00 | 0.00 | 0.00 | 41 | 1023.3 |
| 20260501190958 | 16 | 118 | 1.6 | 4.8 | 0.00 | 0.00 | 0.00 | 41 | 1023.2 |
| 20260501190458 | 17 | 118 | 3.2 | 8.0 | 0.00 | 0.00 | 0.00 | 41 | 1023.2 |
| 20260501185957 | 17 | 118 | 3.2 | 8.0 | 0.00 | 0.00 | 0.00 | 41 | 1023.1 |
| 20260501185457 | 17 | 118 | 3.2 | 8.0 | 0.00 | 0.00 | 0.00 | 41 | 1023.2 |
| 20260501184957 | 17 | 118 | 6.4 | 12.9 | 0.00 | 0.00 | 0.00 | 40 | 1023.2 |
| 20260501184457 | 17 | 118 | 6.4 | 12.9 | 0.00 | 0.00 | 0.00 | 40 | 1023.1 |
| 20260501183957 | 17 | 118 | 6.4 | 12.9 | 0.00 | 0.00 | 0.00 | 39 | 1023.1 |
| 20260501183458 | 18 | 123 | 1.6 | 4.8 | 0.00 | 0.00 | 0.00 | 38 | 1023.0 |
| 20260501182957 | 18 | 123 | 1.6 | 4.8 | 0.00 | 0.00 | 0.00 | 37 | 1023.1 |
| 20260501182457 | 18 | 123 | 1.6 | 4.8 | 0.00 | 0.00 | 0.00 | 36 | 1023.1 |
| 20260501181957 | 18 | 123 | 3.2 | 8.0 | 0.00 | 0.00 | 0.00 | 35 | 1023.0 |
| 20260501181457 | 18 | 123 | 3.2 | 8.0 | 0.00 | 0.00 | 0.00 | 35 | 1022.9 |
| 20260501180957 | 19 | 123 | 4.8 | 12.9 | 0.00 | 0.00 | 0.00 | 34 | 1022.9 |
| 20260501180457 | 19 | 123 | 4.8 | 12.9 | 0.00 | 0.00 | 0.00 | 33 | 1022.9 |
| 20260501175957 | 19 | 123 | 8.0 | 19.3 | 0.00 | 0.00 | 0.00 | 33 | 1022.9 |
| 20260501175457 | 20 | 123 | 8.0 | 19.3 | 0.00 | 0.00 | 0.00 | 33 | 1022.9 |
| 20260501174957 | 20 | 123 | 8.0 | 19.3 | 0.00 | 0.00 | 0.00 | 32 | 1022.9 |
| 20260501174456 | 20 | 126 | 0.0 | 1.6 | 0.00 | 0.00 | 0.00 | 32 | 1022.8 |
| 20260501173956 | 20 | 126 | 0.0 | 1.6 | 0.00 | 0.00 | 0.00 | 31 | 1022.8 |
| 20260501173456 | 20 | 126 | 0.0 | 1.6 | 0.00 | 0.00 | 0.00 | 30 | 1022.8 |
| 20260501172956 | 21 | 126 | 1.6 | 3.2 | 0.00 | 0.00 | 0.00 | 29 | 1022.8 |
| 20260501172456 | 21 | 126 | 1.6 | 3.2 | 0.00 | 0.00 | 0.00 | 29 | 1022.8 |
| 20260501171956 | 21 | 126 | 1.6 | 3.2 | 0.00 | 0.00 | 0.00 | 29 | 1022.8 |
| 20260501171456 | 21 | 126 | 3.2 | 4.8 | 0.00 | 0.00 | 0.00 | 28 | 1022.8 |
| 20260501170956 | 21 | 126 | 4.8 | 8.0 | 0.00 | 0.00 | 0.00 | 28 | 1022.8 |
| 20260501170456 | 21 | 126 | 4.8 | 8.0 | 0.00 | 0.00 | 0.00 | 28 | 1022.8 |
| 20260501165956 | 21 | 126 | 4.8 | 8.0 | 0.00 | 0.00 | 0.00 | 28 | 1022.9 |
| 20260501165456 | 21 | 126 | 8.0 | 11.3 | 0.00 | 0.00 | 0.00 | 27 | 1022.9 |
| 20260501164956 | 21 | 126 | 8.0 | 11.3 | 0.00 | 0.00 | 0.00 | 28 | 1023.0 |
| 20260501164455 | 21 | 126 | 8.0 | 11.3 | 0.00 | 0.00 | 0.00 | 27 | 1023.0 |
| 20260501163955 | 21 | 126 | 11.3 | 16.1 | 0.00 | 0.00 | 0.00 | 27 | 1023.0 |